パンスターズ彗星

C/2014 R3 ( PanSTARRS )

English version
Home page
Updated on August 15, 2020

---------------------------------------------------------------------

・ プロフィール

発見日 2014年9月6日
発見光度 20.1等
発見者 Pan-STARRS 1 telescope (Haleakala)

・ 写真集

・ 軌道要素

Epoch 2016 July 31.0 TT = JDT 2457600.5
T 2016 Aug. 7.89627 TT                                  Rudenko
q   7.2753956            (2000.0)            P               Q
z  +0.0000141      Peri.  113.40110     -0.36316683     -0.82311688
 +/-0.0000005      Node   334.11215     -0.21699426     +0.53039173
e   0.9998971      Incl.   90.83748     +0.90610339     -0.20288721
From 813 observations 2014 Sept. 6-2020 Feb. 27, mean residual 0".5.

・ 光度変化

        m1 = -16   + 5 logΔ + 33   log r(t - 100)  [   ,100]  (              〜2016年11月15日)
        m1 =  -0.5 + 5 logΔ + 15.0 log r(t - 100)  [100,   ]  (2016年11月15日〜              )

---------------------------------------------------------------------

軌道要素はM.P.E.C. 2020-E26に掲載されたものです。
光度グラフはComet for Windowsで作成したものです。

---------------------------------------------------------------------

Copyright(C) Seiichi Yoshida (comet@aerith.net). All rights reserved.